Ana Sayfa
METAR-TAF:

METAR-TAF

Havaalanları :

Paros, Yunanistan

Enlem: 37-01-15N, Boylam: 025-06-46E, yükseklik: 38 m

Güncel hava durumu gözlemi

Rapor saat 18:20 UTC de 16 dakika önce yapıldı.
Rüzgar doğu/güneydoğudan 4 kt
Sıcaklık 20°C
Nem 78%
Basınç 1018 hPa

METAR: LGPA 181820Z AUTO 12004KT //// // ////// 20/16 Q1018 RE//

Saat: 21:36 (18:36 UTC)


TAF: eksik

4.000'den fazla havaalanı için hava durumu gözlemleri ve tahminleri (METAR ve TAF raporları).

Kullanılabilir istasyonlar harita üzerinde sarı ve kırmızı noktalarla gösterilir.

İstasyonun adını görmek için fareyi noktanın üzerinde gezdirin.

Sonrasında hava gözlem ve tahminlerini görmek için tıklayın.

Haritayı değiştirmek için: yaklaştırmak için siyah artı işaretli yeşil düğmeye ve uzaklaştırmak için de eksi işaretli düğmeye hızla tıklayın; bitişik haritalar için yeşil okları kullanın.


METAR-TAF: